Regional Weather Roundup
Issued by NWS Newport/Morehead, NC

Current Version | Previous Version | Graphics & Text | Print | Product List | Glossary Off
Versions: 1 2 3 4 5 6 7 8 9 10 11 12 13 14 15 16 17 18 19 20 21 22 23 24 25 26 27 28 29 30 31 32 33 34 35 36 37 38 39 40 41 42 43 44 45 46 47 48 49 50
000 ASUS42 KMHX 042312 RWRMHX WEATHER ROUNDUP FOR EASTERN NORTH CAROLINA NATIONAL WEATHER SERVICE NEWPORT/MOREHEAD CITY NC 600 PM EST WED MAR 04 2015 NOTE: "FAIR" INDICATES FEW OR NO CLOUDS BELOW 12,000 FEET WITH NO SIGNIFICANT WEATHER AND/OR OBSTRUCTIONS TO VISIBILITY NCZ015>017-031-032-045>047-102-103-050000- NORTH COAST CITY SKY/WX TMP DP RH WIND PRES REMARKS EDENTON NOT AVBL ELIZABETH CITY NOT AVBL KITTY HAWK NOT AVBL MANTEO MOCLDY 57 55 94 S15 29.90F $$ NCZ045>047-081-094-103-104-050000- CENTRAL COAST CITY SKY/WX TMP DP RH WIND PRES REMARKS FRISCO CLOUDY 54 54 100 SW10 29.97S FOG SWANQUARTER N/A 55 N/A N/A S12G22 29.88S $$ NCZ095-097-098-100-101-050000- SOUTHERN COAST CITY SKY/WX TMP DP RH WIND PRES REMARKS BEAUFORT NOT AVBL CEDAR ISLAND N/A 64 N/A N/A SW16G23 30.00R JACKSONVILLE NOT AVBL PINEY ISLAND N/A N/A N/A N/A MISG 29.96R WILMINGTON NOT AVBL $$ NCZ011>013-027>030-043-044-078>080-089-090>093-098-050000- COASTAL PLAIN CITY SKY/WX TMP DP RH WIND PRES REMARKS AHOSKIE NOT AVBL CLINTON NOT AVBL ELIZABETHTOWN NOT AVBL GOLDSBORO CLEAR 75 70 85 SW14 29.87 GREENVILLE NOT AVBL HAVELOCK NOT AVBL KENANSVILLE NOT AVBL KINSTON NOT AVBL NEW BERN NOT AVBL RICHLANDS NOT AVBL ROCKY MOUNT NOT AVBL WASHINGTON NOT AVBL WHITEVILLE NOT AVBL $$ AMZ130-135-150-152-154-156-158-170-250-252-270-ANZ085-086-088-633-658-670-050000- MARINE OBSERVATIONS STATION/POSITION TIME TEMP WIND PRES WAVE SWELL AIR SEA DIR/SP/G HT/PER HT/PER (UTC) (F) (DEG/KT/KT) (MB) (FT/S) (FT/S) CHESAPEAKE LIGHT NOT AVBL 64 E VA BEACH 2250 56 53 200/ 17/ 21 1011.8 5/ 6 2/11 DUCK 2200 56 37 140/ 8/ 9 1011.2 2 E DUCK 2211 38 N/A 3/ 7 2/11 10 NE DUCK 2222 40 N/A 4/ 7 2/11 OREGON INLET 2200 50 47 200/ 15/ 20 1013.4 HATTERAS CG 2200 56 46 220/ 9/ 12 1015.0 CAPE LOOKOUT NOT AVBL BEAUFORT LAB 2200 59 46 210/ 12/ 16 1013.9 27 SE WRIGHTSVLE NOT AVBL 5 SE WRIGHTSVLE NOT AVBL 225 S CAPE HAT 2250 73 74 210/ 17/ 21 1020.7 6/10 3/10 41 SE CHARLESTON 2150 70 69 200/ 19/ 23 1015.8 5/ 6 3/ 9 $$

USA.gov is the U.S. government's official web portal to all federal, state and local government web resources and services.